Regional Weather Roundup
Issued by NWS

Home | Current Version | Previous Version | Graphics & Text | Print | Product List | Glossary On
Versions: 1 2 3 4 5 6 7 8 9 10 11 12 13 14 15 16 17 18 19 20 21 22 23 24 25 26 27 28 29 30 31 32 33 34 35 36 37 38 39 40 41 42 43 44 45 46 47 48 49 50
271
ASUS44 KLIX 301310
RWRLA
LOUISIANA WEATHER ROUNDUP
NATIONAL WEATHER SERVICE NEW ORLEANS LA
800 AM CDT TUE SEP 30 2014

NOTE: "FAIR" INDICATES FEW OR NO CLOUDS BELOW 12,000 FEET WITH NO
      SIGNIFICANT WEATHER AND/OR OBSTRUCTIONS TO VISIBILITY.
      SKY/WX - SKY CONDITION AND SIGNIFICANT WEATHER.
      TMP - AIR TEMPERATURE.    DP   - DEWPOINT TEMPERATURE.
      RH  - RELATIVE HUMIDITY.  PRES - PRESSURE.
      HX  - HEAT INDEX.         WCI  - WIND CHILL INDEX.

*  THESE STATIONS ARE NOT NWS OR FAA STATIONS AND ARE NOT UNDER
   NWS QUALITY CONTROL.

LAZ040-048-061>063-065-066-069-301400-
SOUTHEAST LOUISIANA

CITY           SKY/WX    TMP DP  RH WIND       PRES   REMARKS
N.O. AUDUBON     N/A     79  73  83 MISG        N/A
N.O. INTL ARPT MOSUNNY   77  72  84 E6        29.89R
N.O. LAKEFRONT SUNNY     76  72  87 E10       29.90R
N.O. DOWNTOWN* FAIR      75  70  83 NE3       29.90S
SLIDELL        SUNNY     73  70  90 NE3       29.90S
BATON ROUGE    SUNNY     72  69  90 NE3       29.90S
BOOTHVILLE     PTSUNNY   78  75  90 CALM      29.89R
BELLE CHASSE   MOSUNNY   76  72  87 NE6       29.89R
BOGALUSA*        N/A     71  68  90 CALM      29.93R FOG
GALLIANO*      NOT AVBL
NEW ROADS*     FAIR      70  70  98 CALM      29.91R
GONZALES*      FAIR      71  71 100 CALM      29.90R FOG
HAMMOND*       SUNNY     73  70  88 CALM      29.92R
HOUMA*         SUNNY    N/A N/A N/A N7        29.89R FOG
PORT FOURCHON* MOSUNNY   79  75  89 CALM      29.92R

$$

LAZ041-044-053-054-301400-
SOUTHWEST LOUISIANA

CITY           SKY/WX    TMP DP  RH WIND       PRES   REMARKS
LAKE CHARLES   SUNNY     73  71  93 CALM      29.89R FOG
LAFAYETTE      SUNNY     73  73 100 CALM      29.90R
PATTERSON      SUNNY     73  72  94 CALM      29.91S
SALT POINT       N/A     77  74  90 CALM      29.89R
NEW IBERIA     SUNNY     73  71  93 CALM      29.90S
CHENAULT AIRPK SUNNY     72  72 100 CALM      29.90R

$$

LAZ027-028-301400-
CENTRAL LOUISIANA

CITY           SKY/WX    TMP DP  RH WIND       PRES   REMARKS
FORT POLK      SUNNY     70  69  95 NE2       29.91R
ALEXANDRIA INT CLOUDY    71  69  93 CALM      29.90R
ALEXANDRIA     PTSUNNY   69  68  96 CALM      29.92R

$$

LAZ001-002-301400-
NORTHWEST LOUISIANA

CITY           SKY/WX    TMP DP  RH WIND       PRES   REMARKS
SHREVEPORT     MOCLDY    69  65  86 CALM      29.91S
BARKSDALE AFB  PTSUNNY   69  65  86 CALM      29.92R
DTN SHREVEPORT PTCLDY    67  32  27 CALM      29.92R

$$

LAZ014-016-301400-
NORTHEAST LOUISIANA

CITY           SKY/WX    TMP DP  RH WIND       PRES   REMARKS
MONROE         PTSUNNY   69  64  84 CALM      29.94R
TALLULAH       SUNNY     67  65  93 CALM      29.92S

$$




USA.gov is the U.S. government's official web portal to all federal, state and local government web resources and services.